Theta_e
312 314 315 317 319 323 326 331 331 329 329 330 330 329 328 327 325 324 323 322 319 316 316 316 316 314 318 318 318 318 317 314 312 312 311 312 312 316 318 319 320 320 320
310 310 314 315 321 324 325 328 330 328 327 329 328 326 326 328 325 324 322 320 318 315 314 314 314 313 317 317 317 316 314 311 310 308 308 306 307 309 313 317 318 318 317
311 312 312 314 319 323 325 327 329 328 327 327 327 326 324 325 326 323 322 319 317 313 313 313 313 313 316 316 316 315 313 309 310 309 309 306 306 307 309 312 316 317 317
309 309 309 311 313 321 325 327 327 328 329 328 327 326 326 325 324 323 321 318 315 312 311 312 312 313 314 316 315 314 311 309 309 308 311 310 308 306 306 309 311 314 314
310 308 308 312 313 316 324 325 326 326 326 327 327 325 325 324 324 322 319 317 313 311 310 311 312 313 314 315 314 312 311 310 309 309 309 310 308 308 306 305 308 311 313
310 309 309 311 313 317 321 323 325 325 326 326 326 325 324 324 323 321 318 316 313 311 310 310 310 312 313 314 314 312 311 310 309 309 309 310 310 309 307 304 306 308 308
307 305 304 304 306 308 319 326 326 326 327 327 327 326 324 324 323 320 318 316 313 312 311 310 310 310 312 314 314 313 311 310 309 309 309 309 310 309 309 306 306 307 307
304 303 302 303 303 304 306 316 324 324 324 324 324 326 325 324 322 319 317 316 315 312 312 311 310 309 311 313 313 313 312 312 311 310 310 309 309 311 309 307 306 304 306
300 300 300 301 303 303 304 305 311 322 321 321 321 321 322 323 319 318 317 315 315 315 314 312 311 310 309 311 313 313 313 312 313 311 310 310 310 311 309 308 306 306 304
298 298 298 297 297 298 301 305 306 310 318 321 320 321 320 319 319 317 315 315 314 314 314 313 313 312 310 310 312 313 313 313 313 313 312 311 310 310 310 308 307 307 307
296 296 295 294 294 294 294 297 304 307 311 316 319 318 318 317 316 316 315 315 314 313 314 313 313 312 312 311 310 312 313 313 313 313 312 312 311 310 310 309 308 307 308
293 293 293 292 292 292 293 294 296 302 308 312 318 318 318 317 316 316 315 315 314 314 313 314 313 313 312 311 311 310 311 312 313 312 312 312 312 311 310 309 308 307 307
290 290 290 290 290 291 292 293 294 297 305 308 311 317 319 318 317 317 317 317 315 314 313 313 313 313 313 312 311 310 310 310 311 311 312 312 312 312 311 309 309 308 307
289 289 289 289 289 289 290 291 294 298 302 304 306 309 311 317 317 316 314 317 316 316 315 313 314 314 312 312 311 311 310 309 309 310 310 311 311 312 311 309 308 308 307
286 287 287 288 288 288 289 290 293 296 299 300 300 303 307 311 314 316 315 318 318 318 316 316 316 317 317 314 313 310 309 309 309 308 308 308 309 309 310 309 308 307 307
284 284 285 285 287 287 287 289 292 293 294 295 297 299 301 303 307 312 315 316 316 316 316 316 316 315 315 313 312 313 313 311 309 308 307 306 306 306 307 307 307 307 307
283 283 283 284 285 286 286 288 290 290 291 292 293 295 297 298 300 304 308 311 313 314 314 313 313 313 314 314 314 312 310 310 310 308 307 307 307 307 307 306 305 307 306
282 283 282 283 284 284 285 288 289 289 289 289 291 292 293 295 296 299 301 304 307 310 311 312 312 312 312 312 311 310 309 308 308 307 307 307 306 305 305 304 301 299 299
282 282 282 283 283 283 284 287 287 287 287 288 289 290 291 292 294 295 297 299 302 304 307 308 310 309 310 310 310 309 308 307 307 306 305 304 304 303 302 301 298 295 295
281 281 282 283 283 283 284 285 285 285 286 286 288 289 289 290 292 293 295 296 299 301 303 305 307 307 308 309 309 308 307 305 304 303 303 302 302 301 298 300 297 294 292
281 280 281 282 282 282 283 284 284 284 284 285 287 288 288 289 290 291 293 294 296 298 300 302 303 304 305 306 306 306 306 305 303 301 300 299 299 298 297 298 297 297 291
279 279 280 281 281 281 282 283 283 282 283 283 285 286 287 288 289 290 291 293 294 295 296 298 300 301 302 303 304 304 305 304 303 301 300 299 297 296 295 296 294 294 292
278 278 279 280 280 280 280 281 281 281 282 282 283 284 286 287 287 288 290 291 292 293 293 294 296 297 299 301 302 302 302 302 301 301 300 298 296 295 292 293 293 293 291
277 277 278 278 278 279 279 280 280 280 281 282 283 284 284 287 286 287 289 289 290 291 292 292 293 295 297 298 300 300 299 297 298 298 296 296 295 293 292 292 291 291 292
276 276 276 277 277 277 278 278 279 280 280 281 282 283 284 285 285 286 287 288 289 290 291 292 292 293 294 296 297 299 299 297 296 295 294 294 292 291 292 291 290 290 288
274 274 275 275 276 276 277 278 278 279 279 280 282 283 285 285 285 285 285 286 288 289 289 290 292 292 293 294 295 297 298 297 296 294 293 291 290 290 290 287 287 287 287
Wind_Speed
8 21 28 34 36 35 31 27 31 30 28 28 31 25 23 25 23 22 25 28 27 27 27 28 30 32 30 29 25 23 25 24 24 22 17 11 9 12 9 14 19 21 21
7 10 19 28 34 36 35 30 32 32 32 29 30 23 30 28 27 27 26 27 29 30 30 30 32 33 32 31 30 30 25 26 29 17 15 3 4 5 7 8 15 18 18
5 4 5 8 27 30 34 32 29 34 33 34 29 27 21 18 22 25 28 31 31 32 33 29 31 32 33 34 34 34 32 27 25 31 8 4 4 11 7 9 12 16 17
9 8 8 10 13 25 32 33 32 29 32 32 30 31 28 21 27 30 33 34 34 33 33 29 29 31 31 33 35 34 33 32 28 29 7 8 16 4 3 10 13 13 15
9 8 8 10 10 19 31 31 29 29 30 32 32 30 27 27 25 31 30 34 35 34 34 31 31 31 30 31 34 35 33 33 33 27 18 12 11 14 7 3 10 16 16
13 17 24 25 29 6 25 28 27 26 28 30 32 32 30 28 23 30 30 32 35 33 35 33 34 33 31 33 34 34 33 32 33 29 27 21 9 12 6 4 10 14 14
13 15 17 19 25 27 19 12 11 15 18 26 27 34 35 33 33 32 32 31 31 33 38 36 37 36 36 33 35 33 35 31 32 33 28 25 16 15 10 13 12 7 12
14 15 15 20 21 24 24 14 7 13 14 17 22 26 32 36 36 39 32 29 30 37 40 41 39 39 37 34 33 35 35 33 30 30 28 26 25 13 20 17 17 4 2
13 14 16 21 22 23 23 22 15 12 14 11 12 9 14 26 26 31 34 32 27 25 31 39 38 38 36 35 35 34 34 34 30 28 29 27 25 20 22 21 28 18 4
13 13 16 23 25 25 23 22 23 17 2 7 7 8 10 13 23 29 25 31 29 24 25 34 36 35 34 35 34 34 33 30 33 31 30 28 27 25 23 22 26 19 15
13 13 16 23 24 26 28 27 26 25 20 7 6 8 9 12 17 22 24 27 24 26 28 35 34 33 33 32 33 34 31 33 32 32 32 31 28 26 25 25 25 25 15
13 13 18 21 24 25 27 28 28 26 27 20 7 9 10 11 16 19 21 20 27 23 26 29 32 30 31 32 33 33 33 34 33 33 32 32 31 29 29 29 28 25 21
14 13 17 20 23 26 28 28 29 28 26 27 25 7 11 14 18 20 16 12 20 20 21 23 27 28 27 29 30 31 28 30 32 32 33 35 32 32 29 30 28 25 20
15 13 14 19 24 26 27 29 32 33 25 26 26 24 22 5 22 18 14 19 16 15 23 30 25 23 27 25 28 29 29 27 29 31 33 32 33 32 32 28 25 22 20
16 16 15 16 22 25 28 30 31 31 25 26 28 26 24 20 16 16 20 19 22 22 21 17 12 14 21 29 32 29 27 27 28 28 29 29 30 30 31 31 26 22 19
15 16 16 21 22 23 25 26 27 28 30 29 27 28 26 25 23 16 7 9 13 18 20 20 22 23 20 24 22 23 24 29 31 30 30 26 26 25 27 26 27 27 24
14 14 15 19 21 23 23 23 23 25 28 27 28 27 27 26 25 21 16 11 5 9 10 12 12 13 13 14 13 15 20 20 21 25 28 33 31 30 30 25 25 27 23
12 11 17 19 22 24 24 22 21 22 23 24 26 28 27 25 25 21 20 15 11 7 5 5 6 8 10 10 11 13 15 14 15 18 20 22 24 25 27 26 23 21 20
14 16 18 19 20 25 27 22 23 23 23 24 23 22 21 22 22 24 22 17 14 11 6 1 3 5 6 7 8 10 14 15 14 15 16 18 19 20 25 27 23 21 18
16 19 19 18 20 25 26 22 23 23 24 24 21 19 21 20 20 19 19 17 14 11 8 4 3 4 6 7 8 10 12 14 14 14 13 16 18 19 26 27 29 25 22
18 21 20 18 19 24 22 20 22 23 23 23 20 19 19 19 18 17 15 16 16 12 9 7 5 4 5 6 7 12 15 17 16 16 16 17 17 21 27 27 29 30 28
20 21 19 20 21 24 23 20 22 24 23 22 20 19 20 18 18 17 16 14 13 14 13 11 7 5 5 5 5 10 11 13 15 16 16 18 19 24 25 26 26 26 26
19 21 20 20 21 23 23 22 24 27 24 22 19 18 18 16 17 14 14 15 13 13 14 14 13 12 9 6 4 6 13 13 11 10 11 12 19 27 22 23 25 25 28
19 20 19 19 20 23 22 21 24 25 24 22 20 18 16 15 16 15 11 12 11 11 12 13 13 13 12 9 5 7 9 7 7 8 7 10 24 26 22 26 29 28 29
19 19 19 19 19 23 24 24 25 26 25 22 20 19 16 15 14 14 14 12 10 8 9 10 10 10 11 7 5 10 11 10 7 7 13 25 26 23 24 25 28 26 25
19 18 18 17 20 23 25 25 25 23 23 22 20 20 18 16 14 15 14 12 10 9 9 8 7 8 9 8 5 9 14 10 9 13 20 21 22 23 25 25 23 25 26
Wind_Direction
235 205 195 197 196 199 199 199 196 197 202 200 197 198 189 185 180 192 190 190 188 190 185 181 177 174 171 171 171 168 162 149 148 127 112 104 104 102 132 137 142 141 139
240 246 213 194 184 188 195 199 192 196 194 192 197 193 199 202 193 190 190 192 191 190 189 186 182 177 171 170 172 168 159 160 162 144 120 107 71 118 137 161 158 154 154
275 320 337 183 177 182 187 194 194 195 193 196 197 203 205 209 201 196 186 194 194 193 191 190 187 182 177 174 175 176 169 166 175 167 143 138 177 143 177 166 187 179 172
13 356 331 305 218 188 186 189 201 200 193 193 189 190 198 194 203 199 190 193 192 197 192 192 189 186 186 181 179 179 178 179 179 185 192 162 148 163 157 198 187 198 201
7 343 334 317 298 199 182 190 197 208 208 203 200 194 194 204 203 198 191 192 190 195 192 192 188 190 190 186 183 183 184 193 185 190 185 160 167 154 142 166 191 195 203
22 25 15 18 11 210 174 185 191 202 209 210 206 204 200 198 191 194 190 185 187 190 191 193 191 190 191 191 188 190 192 197 196 192 198 183 166 191 148 125 165 175 185
30 24 16 12 12 11 34 138 165 188 197 212 214 210 204 200 194 190 188 182 181 188 193 194 197 193 193 194 191 192 195 199 199 202 202 203 190 195 174 140 152 173 177
33 32 18 15 14 15 17 28 219 219 230 241 246 239 219 204 194 188 188 185 189 188 196 197 197 197 195 195 199 199 204 198 204 203 204 204 206 208 191 168 160 119 154
31 32 23 21 19 20 19 16 21 206 202 193 210 200 213 201 182 181 187 181 190 193 195 194 198 199 198 198 197 201 203 205 204 204 205 205 204 205 199 196 181 153 166
32 30 28 22 17 16 13 20 27 43 131 201 223 225 232 188 187 183 176 184 187 187 199 195 198 198 199 200 199 203 207 205 208 208 206 208 207 209 204 202 202 199 184
30 27 30 22 18 13 12 13 19 23 34 70 190 213 204 207 175 175 183 184 178 198 191 203 200 197 197 201 200 205 203 205 209 211 211 211 210 208 211 210 213 213 206
23 25 25 19 18 14 11 12 12 15 22 29 161 192 179 172 174 184 189 185 186 191 187 197 196 194 198 198 201 204 206 207 207 211 211 214 212 213 215 213 212 216 221
22 20 20 18 15 13 11 9 9 7 21 33 48 114 186 186 170 168 150 186 207 194 186 192 193 192 198 201 205 206 208 211 213 213 213 216 212 213 210 214 216 218 216
22 16 19 16 12 10 10 8 8 11 26 29 34 41 44 140 182 170 167 172 172 181 216 210 205 204 208 208 207 205 208 211 217 218 219 220 216 216 212 208 209 208 204
19 14 14 14 12 9 7 8 11 17 24 31 32 29 31 48 64 181 183 192 190 194 193 185 194 212 215 224 220 221 214 217 224 223 224 224 220 220 222 213 204 203 210
15 9 9 9 8 8 5 4 13 16 23 26 25 26 26 29 39 50 98 186 193 201 208 209 206 217 219 226 226 224 229 233 236 228 225 223 219 214 211 218 232 229 222
9 3 4 1 2 3 0 1 14 20 24 20 21 22 20 23 27 34 54 70 140 186 189 194 200 210 225 228 236 233 225 226 235 241 241 234 232 233 231 224 221 231 229
359 4 0 358 3 1 360 4 19 25 24 18 17 18 16 16 15 25 32 36 43 87 132 164 195 219 231 232 232 229 228 232 236 237 241 244 242 236 224 214 209 204 206
355 6 359 359 6 8 1 8 19 21 19 16 14 12 11 12 13 13 15 15 15 19 27 68 166 218 227 237 231 222 223 232 238 240 239 239 239 230 216 202 185 174 176
6 4 2 6 18 11 11 14 19 14 11 4 4 5 9 6 7 8 9 6 5 0 360 337 297 260 250 246 245 233 223 219 221 223 227 231 227 216 205 198 185 167 163
12 7 8 16 20 12 13 20 13 9 359 0 3 5 4 2 360 358 5 7 6 1 4 0 351 322 285 255 235 226 225 220 211 213 211 214 211 205 201 203 193 185 167
8 6 5 16 17 14 16 17 13 360 355 354 3 9 2 2 358 355 357 6 9 11 9 7 4 354 312 287 268 237 238 235 219 215 218 217 204 202 195 198 190 181 170
5 359 1 10 12 11 16 14 3 357 354 352 349 0 11 2 359 351 354 355 8 15 7 6 359 353 347 332 285 246 236 243 238 234 228 216 191 185 175 183 172 183 174
359 352 0 5 4 1 8 10 1 355 352 347 346 351 4 5 359 359 353 347 357 2 358 355 353 347 343 340 335 207 220 222 237 226 206 180 176 177 176 160 163 180 185
351 352 356 357 356 356 357 2 1 357 351 346 344 347 350 357 358 353 345 343 335 336 330 324 327 328 320 324 297 241 229 227 224 189 160 159 159 155 158 164 172 178 172
345 346 346 346 351 355 356 1 360 355 348 343 341 342 348 356 354 348 340 350 340 333 326 312 298 299 290 282 276 246 241 240 213 179 165 162 162 161 163 159 157 161 166